Temp
-20 -21 -19 -18 -17 -16 -16 -15 -16 -15 -15 -14 -14 -14 -14 -13 -13 -13 -13 -12 -12 -12 -11 -11 -11 -11 -11 -10 -10 -10 -10 -10 -10 -10 -9 -10 -9 -9 -9 -9 -9 -9 -9 -9 -9
-21 -20 -20 -18 -16 -16 -16 -16 -16 -16 -15 -15 -14 -14 -14 -14 -14 -13 -13 -13 -13 -12 -12 -11 -11 -11 -11 -11 -11 -11 -10 -10 -11 -10 -10 -10 -10 -10 -10 -10 -10 -10 -10 -9 -9
-21 -21 -20 -19 -16 -16 -16 -16 -15 -16 -16 -15 -14 -14 -14 -14 -14 -14 -13 -13 -13 -13 -13 -12 -12 -11 -11 -11 -11 -11 -11 -11 -11 -11 -11 -10 -10 -10 -10 -10 -10 -10 -10 -10 -9
-22 -21 -20 -19 -17 -17 -16 -16 -16 -16 -17 -16 -15 -14 -14 -14 -14 -14 -14 -13 -13 -13 -13 -12 -12 -12 -12 -11 -11 -11 -11 -11 -11 -11 -11 -11 -11 -10 -10 -11 -10 -10 -10 -9 -9
-22 -22 -21 -20 -18 -18 -16 -17 -17 -16 -16 -16 -16 -15 -15 -14 -14 -14 -14 -13 -14 -13 -13 -13 -13 -12 -12 -12 -12 -12 -12 -11 -11 -11 -11 -11 -11 -10 -11 -11 -10 -10 -9 -10 -10
-22 -22 -21 -21 -19 -17 -16 -17 -17 -17 -17 -17 -16 -15 -15 -15 -14 -14 -14 -14 -14 -14 -13 -13 -13 -12 -12 -12 -12 -12 -12 -11 -11 -11 -11 -11 -11 -10 -12 -11 -10 -10 -10 -10 -10
-22 -22 -22 -21 -19 -17 -17 -17 -17 -17 -17 -16 -16 -16 -15 -15 -14 -14 -14 -14 -14 -14 -13 -13 -13 -12 -12 -12 -12 -12 -12 -11 -11 -11 -11 -11 -11 -11 -11 -11 -11 -11 -11 -11 -10
-22 -21 -22 -21 -20 -18 -18 -17 -17 -17 -17 -16 -16 -16 -15 -15 -15 -15 -15 -14 -14 -14 -14 -13 -13 -13 -13 -13 -12 -12 -12 -12 -12 -12 -11 -11 -11 -12 -12 -12 -11 -12 -11 -11 -11
-22 -22 -21 -21 -20 -19 -18 -18 -17 -17 -17 -16 -16 -15 -15 -15 -15 -15 -15 -14 -14 -14 -14 -14 -14 -13 -13 -13 -13 -13 -13 -12 -12 -12 -12 -13 -12 -13 -13 -12 -12 -12 -12 -12 -12
-21 -21 -21 -20 -20 -20 -18 -18 -17 -17 -17 -16 -16 -16 -16 -16 -15 -15 -15 -15 -15 -14 -14 -14 -14 -14 -14 -14 -13 -13 -13 -13 -13 -12 -13 -13 -12 -13 -13 -13 -13 -14 -14 -14 -14
-21 -21 -21 -21 -20 -20 -18 -17 -17 -16 -16 -17 -17 -16 -16 -16 -15 -15 -15 -15 -15 -15 -15 -14 -14 -14 -14 -14 -13 -13 -13 -13 -13 -14 -14 -14 -14 -15 -15 -15 -15 -16 -17 -17 -17
-20 -20 -20 -19 -19 -19 -18 -17 -17 -17 -17 -17 -16 -16 -15 -15 -15 -15 -15 -15 -15 -15 -14 -14 -14 -14 -14 -14 -14 -15 -15 -15 -16 -16 -15 -15 -16 -16 -16 -16 -16 -16 -16 -17 -18
-19 -19 -19 -19 -19 -19 -18 -18 -18 -17 -17 -16 -16 -16 -16 -16 -16 -15 -15 -15 -15 -15 -15 -15 -15 -16 -16 -16 -15 -16 -15 -15 -16 -16 -16 -15 -15 -15 -15 -15 -16 -16 -16 -17 -17
-19 -19 -19 -18 -18 -18 -18 -18 -17 -16 -17 -17 -16 -16 -16 -16 -15 -15 -15 -15 -16 -16 -16 -16 -16 -16 -16 -16 -16 -16 -16 -16 -15 -16 -15 -15 -15 -16 -16 -16 -16 -15 -16 -17 -18
-19 -19 -19 -19 -18 -18 -18 -17 -17 -17 -17 -17 -17 -16 -16 -16 -16 -16 -17 -17 -17 -17 -17 -16 -16 -16 -16 -16 -15 -16 -15 -15 -15 -15 -15 -15 -15 -15 -15 -16 -16 -15 -16 -17 -17
-18 -19 -19 -18 -18 -17 -18 -17 -17 -17 -16 -17 -17 -17 -17 -17 -17 -17 -17 -17 -17 -17 -16 -16 -16 -15 -15 -15 -15 -15 -15 -15 -15 -15 -15 -15 -15 -15 -15 -15 -16 -16 -16 -17 -18
-18 -18 -18 -18 -18 -18 -17 -17 -17 -17 -17 -17 -17 -17 -17 -17 -17 -16 -16 -17 -17 -16 -16 -16 -16 -16 -15 -15 -15 -16 -15 -15 -15 -15 -15 -15 -15 -16 -16 -16 -16 -16 -16 -16 -16
-18 -17 -17 -17 -17 -17 -17 -17 -17 -17 -17 -17 -17 -17 -17 -16 -16 -16 -16 -16 -16 -16 -16 -16 -16 -16 -15 -15 -15 -15 -15 -15 -15 -15 -15 -16 -16 -16 -16 -16 -16 -15 -15 -15 -16
-18 -18 -17 -17 -17 -17 -17 -17 -16 -16 -17 -17 -16 -16 -16 -16 -16 -16 -16 -16 -16 -16 -16 -16 -16 -15 -15 -15 -15 -15 -15 -15 -15 -15 -15 -16 -16 -16 -16 -16 -16 -16 -15 -16 -16
-15 -16 -16 -16 -16 -16 -16 -16 -15 -15 -15 -15 -15 -16 -16 -16 -16 -16 -16 -16 -16 -16 -16 -15 -15 -15 -15 -15 -15 -15 -15 -15 -15 -15 -15 -15 -15 -15 -16 -16 -16 -17 -16 -16 -17
-14 -14 -14 -14 -15 -15 -15 -15 -15 -15 -15 -15 -16 -16 -16 -16 -15 -15 -15 -15 -15 -15 -15 -15 -15 -15 -15 -15 -15 -15 -15 -15 -15 -15 -15 -15 -15 -15 -15 -15 -16 -16 -16 -17 -17
-13 -14 -13 -14 -14 -14 -15 -15 -15 -15 -15 -15 -16 -16 -15 -14 -15 -15 -14 -14 -14 -14 -14 -14 -14 -14 -14 -14 -14 -14 -15 -15 -15 -15 -15 -15 -15 -14 -15 -15 -15 -16 -15 -15 -16
-14 -14 -14 -14 -14 -14 -15 -15 -15 -15 -16 -15 -15 -15 -14 -14 -14 -14 -14 -14 -14 -14 -14 -14 -14 -14 -14 -14 -14 -14 -14 -14 -14 -14 -14 -14 -14 -14 -14 -15 -15 -15 -15 -15 -15
-13 -13 -13 -14 -14 -14 -14 -14 -14 -14 -15 -15 -15 -15 -14 -14 -14 -14 -14 -14 -14 -14 -14 -14 -14 -14 -14 -14 -14 -14 -14 -14 -14 -14 -14 -14 -14 -14 -13 -13 -14 -14 -14 -14 -14
-12 -12 -13 -13 -13 -13 -13 -13 -13 -13 -13 -13 -13 -13 -13 -13 -13 -14 -14 -14 -14 -14 -13 -14 -14 -13 -13 -14 -13 -13 -13 -13 -14 -13 -13 -13 -13 -13 -13 -13 -13 -13 -13 -13 -13
-12 -12 -12 -12 -12 -12 -12 -12 -13 -13 -12 -12 -13 -13 -13 -13 -13 -13 -13 -13 -13 -13 -13 -13 -13 -13 -13 -13 -13 -13 -13 -13 -13 -13 -13 -13 -13 -13 -13 -13 -13 -13 -13 -13 -13
-12 -12 -12 -12 -12 -12 -12 -12 -12 -12 -12 -12 -12 -12 -12 -12 -13 -13 -13 -13 -13 -13 -13 -13 -13 -13 -12 -12 -13 -13 -13 -13 -13 -13 -13 -12 -12 -13 -13 -13 -13 -13 -13 -13 -13
Height
5587 5596 5609 5627 5645 5656 5660 5673 5676 5686 5696 5707 5717 5726 5734 5742 5748 5754 5760 5765 5769 5773 5778 5781 5784 5787 5791 5793 5796 5798 5800 5801 5802 5802 5802 5803 5803 5805 5806 5805 5806 5806 5807 5808 5808
5586 5595 5606 5621 5638 5651 5655 5666 5675 5678 5687 5700 5711 5720 5729 5737 5744 5749 5755 5760 5765 5769 5774 5776 5779 5782 5786 5789 5791 5792 5794 5795 5797 5797 5797 5798 5797 5798 5799 5798 5799 5800 5799 5800 5801
5587 5594 5603 5614 5628 5638 5649 5658 5669 5676 5684 5694 5706 5715 5725 5733 5740 5745 5751 5756 5761 5765 5768 5772 5775 5778 5781 5783 5785 5787 5788 5789 5790 5790 5790 5790 5790 5790 5791 5792 5791 5791 5791 5792 5794
5589 5594 5600 5610 5625 5639 5647 5657 5667 5673 5680 5691 5701 5711 5721 5729 5737 5742 5748 5753 5757 5760 5764 5767 5771 5773 5776 5777 5779 5781 5781 5782 5783 5783 5783 5783 5783 5783 5783 5781 5781 5782 5782 5784 5784
5591 5595 5601 5611 5623 5637 5650 5661 5663 5673 5680 5690 5700 5709 5718 5726 5733 5739 5745 5750 5754 5757 5760 5763 5766 5768 5770 5772 5773 5774 5775 5775 5776 5776 5775 5776 5775 5774 5774 5770 5772 5772 5772 5772 5773
5594 5598 5604 5612 5622 5636 5651 5659 5668 5675 5680 5688 5698 5707 5715 5724 5730 5736 5742 5746 5750 5753 5756 5758 5761 5763 5765 5766 5767 5768 5768 5768 5768 5767 5768 5768 5766 5765 5760 5761 5761 5761 5760 5760 5760
5597 5600 5606 5613 5623 5635 5645 5658 5667 5675 5681 5690 5698 5706 5712 5721 5727 5733 5739 5743 5746 5750 5752 5754 5756 5758 5759 5760 5760 5761 5761 5760 5760 5759 5758 5757 5758 5754 5750 5750 5749 5747 5746 5746 5745
5602 5605 5610 5616 5623 5635 5649 5658 5666 5675 5682 5691 5699 5709 5714 5721 5726 5731 5735 5739 5743 5745 5748 5750 5751 5752 5753 5753 5753 5753 5753 5752 5752 5749 5748 5745 5747 5739 5737 5738 5737 5734 5732 5731 5729
5605 5607 5612 5619 5625 5633 5644 5654 5669 5676 5687 5696 5703 5710 5715 5721 5725 5728 5733 5737 5739 5741 5743 5744 5746 5746 5745 5745 5746 5745 5744 5743 5740 5741 5736 5735 5734 5728 5723 5724 5723 5719 5715 5714 5713
5609 5611 5616 5623 5630 5640 5653 5664 5677 5682 5693 5700 5706 5713 5717 5721 5723 5726 5730 5732 5735 5737 5738 5739 5740 5740 5740 5739 5739 5737 5736 5734 5731 5730 5726 5722 5722 5716 5711 5710 5707 5702 5699 5697 5694
5615 5618 5624 5631 5639 5652 5664 5675 5684 5693 5701 5705 5709 5713 5716 5719 5722 5725 5728 5730 5732 5734 5734 5734 5735 5736 5735 5734 5732 5730 5728 5725 5722 5719 5716 5710 5710 5702 5702 5697 5693 5689 5685 5680 5674
5631 5633 5637 5643 5652 5662 5670 5683 5693 5702 5705 5709 5711 5713 5716 5719 5722 5725 5727 5729 5730 5731 5731 5733 5732 5731 5729 5727 5725 5723 5720 5717 5715 5711 5708 5704 5701 5697 5694 5690 5685 5681 5676 5668 5661
5647 5649 5652 5658 5665 5672 5678 5688 5696 5703 5708 5711 5712 5715 5719 5722 5723 5725 5727 5728 5729 5729 5729 5728 5728 5726 5724 5723 5722 5719 5716 5713 5710 5707 5702 5699 5696 5692 5688 5684 5679 5672 5667 5661 5653
5662 5663 5666 5671 5677 5682 5688 5695 5702 5706 5710 5714 5715 5718 5721 5722 5725 5725 5726 5728 5727 5727 5727 5726 5725 5724 5722 5721 5719 5717 5714 5710 5707 5705 5701 5698 5696 5687 5683 5676 5669 5662 5660 5654 5645
5675 5677 5679 5683 5687 5690 5696 5701 5705 5708 5713 5716 5718 5720 5722 5724 5726 5726 5727 5727 5728 5726 5726 5726 5723 5722 5720 5719 5717 5714 5711 5709 5707 5703 5700 5695 5690 5683 5678 5671 5663 5656 5651 5645 5638
5688 5688 5690 5694 5697 5700 5702 5705 5709 5714 5716 5719 5721 5723 5725 5726 5727 5729 5728 5728 5727 5726 5725 5724 5722 5721 5720 5717 5715 5714 5711 5708 5704 5701 5698 5693 5687 5682 5675 5668 5661 5652 5645 5639 5631
5701 5701 5703 5704 5707 5709 5711 5714 5717 5718 5721 5723 5724 5725 5727 5728 5730 5730 5729 5728 5727 5727 5725 5723 5722 5720 5718 5717 5716 5714 5711 5709 5706 5701 5698 5692 5686 5679 5673 5665 5656 5648 5640 5634 5626
5711 5711 5712 5713 5716 5717 5718 5722 5723 5724 5725 5727 5728 5729 5731 5731 5731 5731 5731 5730 5729 5727 5725 5724 5723 5721 5719 5719 5717 5715 5712 5709 5704 5700 5696 5693 5686 5681 5674 5666 5656 5648 5640 5633 5627
5720 5719 5720 5721 5721 5722 5725 5727 5729 5729 5730 5732 5732 5733 5734 5734 5734 5733 5731 5729 5728 5727 5726 5725 5724 5723 5721 5719 5718 5715 5712 5709 5704 5700 5697 5692 5688 5682 5673 5665 5657 5647 5641 5636 5627
5733 5730 5729 5728 5729 5730 5732 5733 5735 5736 5737 5737 5738 5737 5737 5736 5735 5733 5731 5730 5728 5727 5727 5726 5725 5723 5722 5720 5718 5715 5713 5710 5705 5701 5695 5692 5688 5683 5676 5668 5661 5654 5648 5640 5632
5747 5745 5744 5742 5740 5739 5739 5741 5741 5741 5741 5741 5741 5740 5739 5738 5736 5735 5735 5734 5731 5729 5728 5727 5726 5726 5723 5721 5718 5715 5712 5709 5705 5702 5697 5693 5690 5685 5679 5674 5667 5661 5654 5647 5639
5760 5756 5753 5751 5751 5750 5748 5747 5747 5748 5747 5746 5745 5743 5742 5741 5740 5738 5738 5737 5735 5734 5732 5730 5729 5726 5724 5721 5719 5715 5712 5709 5706 5703 5699 5695 5693 5687 5683 5678 5673 5667 5660 5655 5651
5764 5764 5761 5758 5757 5756 5756 5755 5754 5752 5750 5749 5748 5747 5746 5744 5743 5741 5740 5739 5737 5736 5735 5733 5730 5728 5726 5724 5720 5717 5714 5710 5707 5704 5701 5697 5695 5690 5687 5682 5678 5673 5668 5663 5660
5767 5766 5767 5765 5761 5759 5759 5758 5758 5757 5755 5753 5751 5749 5748 5747 5745 5745 5743 5741 5739 5737 5735 5733 5731 5729 5726 5723 5720 5717 5714 5711 5708 5705 5702 5699 5696 5692 5689 5685 5682 5678 5674 5671 5667
5772 5769 5768 5767 5767 5765 5762 5760 5760 5759 5758 5757 5756 5754 5752 5750 5748 5747 5745 5743 5741 5739 5736 5734 5731 5728 5725 5722 5720 5717 5715 5711 5708 5705 5702 5699 5696 5693 5690 5687 5684 5681 5678 5675 5672
5774 5772 5769 5768 5766 5767 5766 5765 5762 5761 5759 5759 5758 5756 5754 5752 5750 5748 5745 5743 5741 5739 5736 5734 5732 5729 5725 5722 5719 5716 5714 5711 5708 5705 5702 5700 5697 5694 5691 5689 5686 5684 5681 5678 5675
5772 5772 5771 5769 5767 5765 5764 5764 5764 5762 5760 5758 5756 5754 5753 5751 5750 5748 5745 5743 5740 5738 5736 5734 5732 5730 5726 5723 5720 5718 5714 5711 5708 5705 5702 5699 5697 5693 5691 5688 5686 5683 5681 5678 5676
Wind_Speed
39 38 45 52 49 43 36 40 36 43 50 49 47 46 43 40 39 37 34 34 33 32 32 31 29 29 29 29 28 28 27 27 27 29 31 31 32 32 32 34 33 33 32 30 28
24 37 38 53 57 48 51 43 42 31 41 55 47 44 43 41 39 38 37 35 34 34 33 33 33 33 32 31 30 31 32 33 30 32 32 32 33 34 35 37 38 37 38 38 37
26 30 34 50 62 50 43 46 38 33 28 42 49 43 42 42 40 38 38 37 36 35 33 32 34 34 35 34 33 34 36 35 35 35 35 36 37 38 38 40 40 42 42 43 42
19 28 33 41 61 66 50 35 34 31 30 35 41 45 41 39 39 38 38 37 36 35 33 33 33 34 34 34 35 36 36 36 37 38 39 40 42 42 40 42 45 45 47 47 47
15 15 26 38 59 62 51 39 28 27 29 27 32 37 37 36 35 36 35 36 35 34 34 34 34 33 35 35 37 38 38 39 40 42 43 43 45 47 46 50 51 52 52 52 52
11 12 25 31 55 68 61 42 37 31 30 21 22 27 36 34 32 30 30 30 31 32 33 33 33 34 36 36 38 39 41 43 44 45 46 48 49 51 51 53 55 56 56 57 58
13 10 14 27 48 71 61 41 38 35 29 26 22 21 29 38 36 30 27 26 26 26 27 29 31 32 34 36 37 39 40 43 45 47 50 52 54 56 57 57 58 59 58 60 61
18 14 21 24 34 63 53 38 37 37 30 28 22 14 16 21 27 27 26 26 26 26 26 26 27 29 31 33 36 38 41 43 47 48 51 53 52 55 54 55 56 58 61 63 64
20 21 26 21 33 47 60 39 47 32 24 18 16 17 15 13 14 16 19 19 21 23 24 26 28 30 31 33 35 36 38 41 43 44 47 47 49 52 56 57 59 61 64 66 67
18 19 21 27 35 43 52 43 33 27 23 24 21 16 13 11 12 14 15 17 19 19 20 21 23 24 27 28 30 32 34 37 40 44 47 50 52 55 57 62 62 57 55 57 62
31 30 28 33 38 45 41 39 31 27 26 20 16 11 10 11 11 11 12 13 13 14 15 17 18 20 23 26 29 34 38 41 46 49 49 44 46 36 34 34 36 37 36 43 51
37 35 38 41 43 44 45 43 39 31 17 16 13 12 11 10 8 8 6 7 8 9 11 14 18 22 26 30 32 30 27 24 19 22 24 27 28 32 31 29 25 32 37 40 44
36 37 38 41 37 39 41 39 33 24 19 19 18 14 12 10 8 6 5 4 6 11 14 15 11 9 6 6 6 9 13 18 20 21 22 20 16 18 22 28 35 35 33 33 28
39 32 31 32 32 29 31 29 28 26 20 17 17 15 12 12 9 6 5 5 7 7 5 2 5 6 6 9 12 14 16 14 14 15 19 18 18 27 29 38 41 34 29 35 32
46 39 36 34 33 35 37 33 28 28 23 21 18 16 15 11 8 10 11 11 6 4 5 5 5 6 9 11 10 12 11 13 16 18 20 21 21 20 20 25 31 35 35 37 39
37 36 36 33 31 28 26 27 28 25 21 20 18 16 17 18 15 10 7 5 2 3 4 4 4 4 5 4 6 8 10 10 11 10 10 13 18 18 20 22 22 26 26 25 27
32 31 30 30 28 27 24 24 23 22 21 20 24 23 18 13 10 8 7 7 6 4 4 5 5 5 3 3 4 4 7 8 11 10 13 18 24 21 18 19 20 19 21 19 16
27 27 28 28 29 26 25 21 18 22 27 26 21 17 13 13 14 14 10 8 4 4 3 3 3 2 1 2 3 5 6 9 14 14 15 16 21 23 22 28 19 17 23 19 19
29 29 27 23 21 24 23 25 30 30 26 22 18 17 18 16 14 11 8 6 4 2 1 2 3 4 2 3 3 7 7 12 13 12 11 18 18 23 32 28 27 27 30 29 29
44 38 35 35 34 32 32 30 29 26 23 22 20 17 16 15 15 13 9 7 6 4 2 2 3 3 1 3 5 8 8 9 11 14 17 19 19 26 34 32 37 39 27 32 36
37 37 37 35 34 32 30 26 25 23 22 20 19 18 17 16 16 15 15 15 16 13 10 9 8 6 5 7 9 11 12 10 12 14 16 18 19 23 22 35 36 37 37 40 50
27 27 27 27 27 26 25 24 22 20 18 18 17 17 17 16 16 16 16 16 16 16 15 14 13 13 13 12 12 14 15 16 17 16 17 16 14 15 16 18 22 30 30 29 33
18 17 18 19 19 18 18 17 16 16 14 14 15 14 14 13 13 13 13 13 13 13 12 12 11 11 11 12 13 13 13 14 14 15 15 15 15 16 16 18 16 17 20 24 26
13 13 13 12 14 14 14 12 11 11 10 10 11 11 10 10 9 9 9 8 8 8 8 8 9 9 9 10 11 12 12 13 14 14 13 14 14 14 17 19 18 18 19 20 22
7 8 8 9 8 8 9 9 9 7 7 6 6 6 6 5 4 5 6 7 7 9 10 11 12 11 10 12 12 11 11 12 12 13 13 12 11 11 11 12 12 13 15 16 18
1 1 2 2 3 3 3 3 4 4 4 4 4 4 5 6 6 7 7 8 9 10 11 11 12 14 15 15 14 14 13 12 12 13 13 13 13 11 9 8 8 9 11 12 13
5 5 5 4 4 4 4 3 4 4 4 4 5 6 7 8 8 9 9 9 10 10 11 11 12 13 13 13 14 14 15 15 15 14 14 14 14 15 16 16 16 16 16 16 16
Wind_Direction
189 192 197 194 188 197 194 190 214 224 218 217 217 218 221 224 225 224 226 224 227 229 232 235 237 239 240 243 246 250 254 256 257 260 263 259 263 265 266 266 265 267 269 268 268
182 180 183 181 180 168 188 194 196 206 213 216 215 215 218 221 226 227 229 230 229 230 233 235 238 242 244 248 252 254 257 260 261 261 263 262 267 271 273 272 270 267 265 264 264
193 181 182 183 191 180 154 167 181 184 195 206 211 211 215 218 223 228 231 235 236 236 237 238 242 244 248 251 255 258 261 263 263 264 265 266 268 272 274 276 273 271 271 267 265
181 193 185 177 184 195 177 155 151 175 186 197 199 209 213 217 221 226 232 237 241 243 246 247 249 252 255 259 263 266 267 268 268 267 267 269 271 273 275 275 277 277 274 271 269
178 190 195 168 181 186 189 177 146 158 177 182 195 203 211 217 223 227 233 239 245 250 252 254 256 258 262 266 267 270 272 274 273 271 271 272 272 272 276 276 276 275 273 271 269
165 179 167 180 179 177 179 151 170 159 160 169 194 206 212 215 220 228 234 238 243 248 253 257 261 264 266 268 271 274 277 278 279 279 277 275 274 273 276 278 278 276 274 272 269
165 145 158 157 174 184 190 171 163 166 164 170 177 188 202 215 222 225 232 238 242 248 253 257 260 264 268 271 273 275 276 278 278 278 278 276 275 275 277 277 276 275 272 270 268
150 173 145 140 171 184 180 180 163 166 155 163 167 183 205 206 214 221 228 235 241 247 251 257 262 265 267 271 272 274 275 275 276 276 276 275 273 274 272 272 272 271 270 268 268
125 145 151 141 164 173 183 168 170 142 154 181 198 193 171 168 188 204 218 229 241 248 254 258 263 266 269 271 271 271 274 275 274 274 275 275 276 277 277 276 275 274 272 270 268
134 131 137 152 151 160 181 191 174 168 157 160 173 167 179 188 197 205 218 227 236 245 252 256 260 265 268 270 274 275 274 277 278 279 277 277 277 277 278 278 278 280 279 277 274
95 101 124 133 136 147 155 168 176 182 167 163 160 178 185 189 193 203 214 223 234 247 260 266 269 272 274 276 277 278 277 277 278 278 279 280 280 279 282 284 290 300 298 289 282
86 100 110 122 136 138 140 156 164 167 169 170 180 171 169 168 175 194 214 238 245 258 265 268 268 271 273 273 276 281 284 286 290 293 295 291 288 289 289 286 288 296 299 299 297
95 97 106 108 127 130 128 138 146 145 157 165 154 144 150 154 159 163 188 218 247 257 260 264 265 270 282 290 298 308 310 308 302 302 302 305 296 286 279 279 290 289 296 295 311
81 93 110 118 115 124 145 140 141 140 139 144 141 139 135 131 140 154 214 239 220 167 135 330 291 310 304 305 312 309 302 310 318 314 314 307 301 297 292 290 287 286 281 289 298
80 84 95 114 121 120 127 135 138 128 129 132 132 131 135 136 143 116 117 116 104 24 333 321 307 301 305 304 302 312 340 331 330 321 316 316 317 308 306 302 299 295 294 286 298
79 83 88 92 101 107 114 125 122 130 129 131 126 118 117 112 99 92 90 65 35 341 349 8 3 326 308 333 329 333 321 338 348 7 10 4 353 341 328 327 315 304 295 297 301
80 89 98 99 99 109 117 121 124 131 128 117 114 112 107 95 82 94 90 80 73 66 62 47 22 12 5 334 349 23 10 15 23 14 8 359 9 18 9 6 352 330 331 331 354
83 94 101 105 106 110 117 121 125 123 117 113 106 103 95 91 87 87 86 72 59 51 66 33 14 9 358 39 70 25 3 5 356 351 355 11 29 26 14 11 6 9 9 18 6
88 90 107 115 111 112 114 115 115 108 102 100 94 92 90 83 72 65 56 54 46 78 28 5 56 67 29 47 4 12 25 15 19 24 32 39 30 23 21 32 39 23 25 23 10
93 99 103 107 109 109 109 106 103 98 97 96 95 86 75 68 65 67 66 61 55 56 64 45 58 108 86 25 351 355 6 14 25 32 29 17 16 34 36 44 42 38 35 31 32
86 91 94 99 105 106 106 103 101 99 96 92 83 74 69 64 69 71 76 77 74 72 66 59 58 51 32 23 29 10 7 359 4 6 11 13 23 45 36 45 44 44 41 37 32
81 89 89 92 96 96 95 97 95 90 83 80 75 71 70 73 77 81 82 74 69 69 70 68 62 55 50 46 37 25 20 22 24 23 16 18 39 50 42 41 50 58 49 41 45
81 82 86 91 90 85 80 79 77 80 76 68 66 72 79 82 80 77 70 62 54 49 45 43 40 36 31 25 23 23 16 12 11 16 20 19 22 30 39 39 37 50 51 48 65
87 90 85 83 87 88 85 77 68 65 59 68 56 65 74 72 69 62 54 45 36 34 33 24 14 8 9 11 12 12 12 12 14 15 20 25 26 34 41 47 50 50 50 50 53
85 92 94 97 86 91 96 96 94 86 81 79 73 76 75 67 52 35 23 15 10 5 3 1 357 1 1 355 357 2 7 11 15 19 25 30 29 38 37 46 52 45 40 38 35
353 354 125 115 107 90 45 55 71 60 56 53 26 10 0 347 345 352 356 358 2 2 1 1 1 358 0 360 357 355 354 356 359 2 2 3 0 2 2 1 0 357 358 1 5
242 257 272 260 253 250 254 270 301 309 310 320 320 328 333 333 340 340 339 343 344 348 355 358 0 359 356 357 353 351 351 350 350 345 344 339 334 335 333 332 333 332 332 332 332